Location: Demmingen
(48.6757°N, 10.4375°E)
Time: 08:52:13
(UTC+00:00)

USA 267 - Pass Details

Date: 20 August 2024
Orbit: 1096 x 1111 km, 123.1° (Epoch: 03 September)

Event Time Altitude Azimuth Distance (km) Brightness Sun altitude
Exits shadow 19:14:42 - 148° (SSE) 3,352 5.3 -8.6°
Reaches altitude 10° 19:15:48 10° 151° (SSE) 2,952 5.0 -8.7°
Maximum altitude 19:22:03 48° 225° (SW) 1,410 4.0 -9.6°
Drops below altitude 10° 19:28:23 10° 298° (WNW) 2,975 7.2 -10.5°
Sets 19:31:00 0° 304° (NW) 3,938 8.5 -10.9°
